Jacksonville Craig, FL

11:49 PM EDT on March 28, 2017 (GMT -0400)
Craig Municipal

Weather History for KCRG - October, 2012

Change the Weather History Date:

Wednesday, October 24, 2012

  Actual Average Record
Temperature  
Mean Temperature 74 °F -  
Max Temperature 84 °F 76 °F 87 °F (2001)
Min Temperature 64 °F 59 °F 45 °F (1999)
Cooling Degree Days 9    
Growing Degree Days 24 (Base 50)    
Moisture  
Dew Point 64 °F    
Average Humidity 72    
Maximum Humidity 93    
Minimum Humidity 47    
Precipitation  
Precipitation 0.00 in - - ()
Sea Level Pressure  
Sea Level Pressure 30.05 in    
Wind  
Wind Speed 4 mph (NE)    
Max Wind Speed 15 mph    
Max Gust Speed 21 mph    
Visibility 10 miles    
Events      
Averages and records for this station are not official NWS values.
T = Trace of Precipitation, MM = Missing Value Source: NWS Daily Summary

Daily Weather History Graph

Daily Weather History Graph

Search for Another Location

Airport or City:

Trip Planner

Search our weather history database for the weather conditions in past years. The results will help you decide how hot, cold, wet, or windy it might be!

Date:

Astronomy

Oct. 24, 2012 Rise Set
Actual Time 7:34 AM EDT 6:45 PM EDT
Civil Twilight 7:10 AM EDT 7:09 PM EDT
Nautical Twilight 6:42 AM EDT 7:37 PM EDT
Astronomical Twilight 6:14 AM EDT 8:05 PM EDT
Moon 3:42 PM EDT (10/24) 2:48 AM EDT (10/24)
Length of Visible Light 11h 59m
Length of Day
11h 10m
Waxing Gibbous, 76% of the Moon is Illuminated
Oct 24
Waxing Gibbous
Oct 29
Full
Nov 6
Last Quarter
Nov 13
New
Nov 20
First Quarter

Hourly Weather History & Observations

Time (EDT) Temp. Heat Index Dew Point Humidity Pressure Visibility Wind Dir Wind Speed Gust Speed Precip Events Conditions
12:53 AM 70.0 °F - 62.1 °F 76% 30.08 in 10.0 mi Calm Calm - N/A   Clear
1:53 AM 69.1 °F - 62.1 °F 78% 30.07 in 10.0 mi ENE 4.6 mph - N/A   Clear
2:53 AM 66.0 °F - 62.1 °F 87% 30.06 in 10.0 mi Calm Calm - N/A   Clear
3:53 AM 64.9 °F - 61.0 °F 87% 30.05 in 10.0 mi NNW 3.5 mph - N/A   Clear
4:53 AM 64.9 °F - 62.1 °F 90% 30.04 in 10.0 mi Calm Calm - N/A   Clear
5:53 AM 64.0 °F - 61.0 °F 90% 30.05 in 10.0 mi Calm Calm - N/A   Clear
6:53 AM 64.0 °F - 60.1 °F 87% 30.06 in 10.0 mi Calm Calm - N/A   Clear
7:53 AM 64.0 °F - 62.1 °F 93% 30.08 in 10.0 mi Calm Calm - N/A   Clear
8:53 AM 72.0 °F - 66.0 °F 81% 30.09 in 10.0 mi North 4.6 mph - N/A   Clear
9:53 AM 80.1 °F 81.9 °F 64.9 °F 60% 30.10 in 10.0 mi ENE 10.4 mph 16.1 mph N/A   Clear
10:53 AM 81.0 °F 82.7 °F 64.9 °F 58% 30.10 in 10.0 mi ENE 9.2 mph - N/A   Clear
11:53 AM 82.9 °F 84.0 °F 63.0 °F 51% 30.09 in 10.0 mi East 15.0 mph 20.7 mph N/A   Mostly Cloudy
12:53 PM 84.0 °F 84.5 °F 62.1 °F 47% 30.08 in 10.0 mi ENE 12.7 mph - N/A   Partly Cloudy
1:53 PM 82.0 °F 82.7 °F 61.0 °F 49% 30.05 in 10.0 mi East 11.5 mph 19.6 mph N/A   Mostly Cloudy
2:53 PM 82.0 °F 83.4 °F 64.0 °F 54% 30.03 in 10.0 mi NE 8.1 mph - N/A   Mostly Cloudy
3:53 PM 80.1 °F 81.9 °F 64.9 °F 60% 30.02 in 10.0 mi NE 11.5 mph - N/A   Scattered Clouds
5:53 PM 80.1 °F 81.7 °F 64.0 °F 58% 30.02 in 10.0 mi NE 6.9 mph - N/A   Clear
6:53 PM 75.9 °F - 68.0 °F 76% 30.02 in 10.0 mi NNE 8.1 mph - N/A   Clear
7:53 PM 75.9 °F - 68.0 °F 76% 30.03 in 10.0 mi NE 5.8 mph - N/A   Scattered Clouds
8:53 PM 75.0 °F - 66.0 °F 73% 30.03 in 10.0 mi NE 4.6 mph - N/A   Clear
9:53 PM 75.0 °F - 66.0 °F 73% 30.03 in 10.0 mi ENE 4.6 mph - N/A   Partly Cloudy
10:53 PM 73.9 °F - 66.0 °F 76% 30.03 in 10.0 mi ENE 5.8 mph - N/A   Clear